Back to catalog

CZ-6A DEB

AliveSSO
NORAD 54515·DEBRIS·🇨🇳 China

Launched Nov 11, 2022 from Taiyuan Satellite Launch Center

Loading…

Next Passes (next 24 hours)

TLE

FreshSource: Space-Track

Epoch: Sep 14, 2026, 19:54 UTC

1 54515U 22151JT  26257.82927453  .00000257  00000-0  92246-4 0  9994
2 54515  98.5574 282.1389 0119335  93.6850 267.7992 14.38013625201206

Track CZ-6A DEB in real time with AllMySat

Download on the App Store